This demonstration page uses our WeatherBlox Daily Observations layout. Learn more.

Left ArrowRight Arrow

Hourly Observations for March 11, 2015

Temp ( °F °C ) Dew Point ( °F °C ) Humidity (%) Winds ( mph kmh ) Pressure ( in mb ) Visibility ( mi km ) Precip ( " mm )
12:53 am 00:53 Mostly Cloudy 58 14.4 52 11.1 81 81 Calm 29.96 1014 10 16 0.00 0.00
1:53 am 01:53 Cloudy with Light Rain 58 14.4 53 11.7 84 84 WSW 5 7 29.96 1015 10 16 0.00 0.03
2:53 am 02:53 Cloudy 58 14.4 53 11.7 84 84 VRB 3 6 29.97 1015 10 16 0.01 0.25
3:53 am 03:53 Cloudy 57 13.9 53 11.7 87 87 Calm 29.97 1015 9 14 0.00 0.00
4:53 am 04:53 Cloudy 56 13.3 53 11.7 90 90 Calm 29.98 1015 9 14 0.00 0.00
5:53 am 05:53 Cloudy 56 13.3 54 12.2 93 93 Calm 30.01 1016 8 13 0.00 0.00
6:53 am 06:53 Cloudy 57 13.9 53 11.7 87 87 SSE 3 6 30.03 1017 9 14 0.00 0.03
7:53 am 07:53 Cloudy 57 13.9 52 11.1 83 83 Calm 30.05 1018 10 16 0.01 0.25
8:53 am 08:53 Cloudy 57 13.9 54 12.2 90 90 Calm 30.07 1018 10 16 0.00 0.00
9:53 am 09:53 Cloudy 59 15 51 10.6 75 75 S 6 9 30.10 1019 10 16 0.00 0.00
10:53 am 10:53 Cloudy 59 15 51 10.6 75 75 S 9 15 30.11 1020 10 16 0.00 0.00
11:53 am 11:53 Cloudy 62 16.7 52 11.1 70 70 S 15 24 30.12 1020 10 16 0.00 0.00
12:53 pm 12:53 Cloudy 61 16.1 51 10.6 70 70 S 12 19 30.14 1021 10 16 0.00 0.00
1:53 pm 13:53 Cloudy 60 15.6 52 11.1 75 75 S 15 24 30.14 1021 10 16 0.00 0.00
2:53 pm 14:53 Cloudy 61 16.1 53 11.7 75 75 SSE 12 19 30.12 1020 10 16 0.00 0.00
3:00 pm 15:00 Cloudy 61 16 54 12 77 77 SSE 12 19 30.12 1020 10 16 0.00 0.00
3:53 pm 15:53 Cloudy 61 16.1 54 12.2 78 78 SSE 10 17 30.13 1020 10 16 0.00 0.00
4:27 pm 16:27 Cloudy 60 15.6 53 11.7 78 78 SSE 10 17 30.12 1020 10 16 0.00 0.00
4:46 pm 16:46 Cloudy 61 16.1 54 12.2 78 78 SSE 8 13 30.12 1020 10 16 0.00 0.00
4:53 pm 16:53 Cloudy 61 16.1 54 12.2 78 78 S 9 15 30.14 1021 10 16 0.00 0.00
5:53 pm 17:53 Cloudy 60 15.6 54 12.2 80 80 SE 3 6 30.15 1021 10 16 0.00 0.03
6:53 pm 18:53 Cloudy 60 15.6 55 12.8 84 84 Calm 30.16 1022 10 16 0.00 0.00
7:53 pm 19:53 Cloudy 59 15 55 12.8 87 87 N 6 9 30.18 1022 10 16 0.00 0.03
8:08 pm 20:08 Cloudy with Light Rain 57 14 55 13 94 94 VRB 6 9 30.21 1023 9 14 0.00 0.00
8:10 pm 20:10 Cloudy with Light Rain 57 14 55 13 94 94 SW 7 11 30.21 1023 7 11 0.00 0.00
8:25 pm 20:25 Cloudy with Light Rain 59 15 55 12.8 87 87 Calm 30.21 1023 6 10 0.03 0.76
8:38 pm 20:38 Cloudy with Light Rain 57 14 55 13 94 94 N 6 9 30.21 1023 7 11 0.00 0.00
8:45 pm 20:45 Cloudy with Rain 58 14.4 56 13.3 93 93 NNE 6 9 30.21 1023 4 6 0.05 1.27
8:48 pm 20:48 Cloudy with Rain 57 14 55 13 94 94 N 7 11 30.21 1023 3 5 0.00 0.00
8:53 pm 20:53 Cloudy with Light Rain 58 14.4 56 13.3 93 93 N 9 15 30.21 1023 3 5 0.07 1.78
9:04 pm 21:04 Cloudy with Light Rain 57 14 55 13 94 94 N 9 15 30.21 1023 4 6 0.00 0.00
9:53 pm 21:53 Cloudy with Light Rain 57 13.9 55 12.8 93 93 NW 5 7 30.23 1024 10 16 0.06 1.52
10:53 pm 22:53 Cloudy 57 13.9 56 13.3 96 96 N 5 7 30.25 1025 9 14 0.05 1.27
11:35 pm 23:35 Cloudy with Heavy Rain 57 13.9 55 12.8 93 93 NNE 6 9 30.27 1025 3 4 0.16 4.06
11:43 pm 23:43 Cloudy with Light Rain 57 13.9 54 12.2 90 90 NNE 9 15 30.27 1025 2 3 0.18 4.57
11:53 pm 23:53 Cloudy with Rain 57 13.9 55 12.8 93 93 NNE 7 11 30.27 1025 3 4 0.21 5.33

Powered by AerisWeather